Flag for Bosnia-Herzegovina Weather past 2 weeks in Sarajevo, Bosnia-Herzegovina

Now
75 °F

Scattered clouds.


Feels Like: 78 °F
Forecast: 54 / 74 °F
Wind: 2 mph from North

Location: Sarajevo / Butmir

Current Time: Jul 12, 2014 at 4:11:30 PM

Latest Report: Jul 12, 2014 at 3:30 PM


Visibility: N/A

Pressure: 29.92 "Hg

Humidity: 47%

Dew point: 54 °F

Location of SarajevoLocation

Historic Weather in Sarajevo — Graph

°F

Sarajevo temperature yesterday

Maximum temperature yesterday: 66 °F (at 11:00 AM)
Minimum temperature yesterday: 54 °F (at 12:00 AM)
Average temperature yesterday: 60 °F

Past Weeks' High & Low Weather Summary

 TemperatureHumidityPressure
High88 °F (Jul 7, 3:30 PM)100% (Jun 28, 5:00 AM)30.36 "Hg (Jun 28, 5:00 AM)
Low48 °F (Jul 4, 4:00 AM)32% (Jun 28, 3:30 PM)29.71 "Hg (Jul 10, 8:30 AM)
Average67 °F68%30.01 "Hg
* Reported Jun 27 2:00 PM — Jul 12 2:30 PM, Sarajevo, Weather by CustomWeather, © 2014

Note: Actual official high and low records may vary slightly from our data, if they occured in-between our weather recording intervals... More about our weather records

Advertising

Sarajevo weather history for previous 24 hours

 ConditionsComfort  
Time TempWeatherWind HumidityBarometerVisibility
2:30 PM
Jul 12
73 °FPartly sunny.5 mph47%29.92 "HgN/A
2:00 PM73 °FScattered clouds.3 mph47%29.92 "HgN/A
1:30 PM72 °FScattered clouds.3 mph50%29.92 "HgN/A
1:00 PM72 °FScattered clouds.3 mph50%29.92 "HgN/A
12:30 PM70 °FScattered clouds.5 mph57%29.95 "HgN/A
12:00 PM70 °FScattered clouds.2 mph60%29.92 "HgN/A
11:30 AM68 °FScattered clouds.2 mph69%29.92 "HgN/A
11:00 AM66 °FScattered clouds.1 mph78%29.92 "HgN/A
10:30 AM64 °FPartly sunny.1 mph83%29.92 "HgN/A
10:00 AM61 °FPartly sunny.2 mph88%29.92 "HgN/A
9:30 AM61 °FPartly sunny.1 mph88%29.92 "HgN/A
9:00 AM61 °FPartly sunny.1 mph88%29.92 "HgN/A
8:30 AM59 °FPartly sunny.No wind100%29.92 "HgN/A
8:00 AM59 °FPartly sunny.1 mph94%29.89 "HgN/A
7:30 AM59 °FPartly sunny.1 mph94%29.89 "Hg4 mi
7:00 AM59 °FPartly sunny.1 mph94%29.89 "Hg5 mi
6:30 AM57 °FPartly sunny.1 mph100%29.86 "Hg5 mi
6:00 AM57 °FPartly cloudy.No wind100%29.86 "Hg5 mi
5:30 AM57 °FLow clouds.1 mph100%29.86 "Hg4 mi
5:00 AM57 °FLight rain. Passing clouds.1 mph100%29.86 "Hg4 mi
4:00 AM57 °FPassing clouds.1 mph100%29.86 "Hg5 mi
3:00 AM57 °FPassing clouds.2 mph100%29.86 "HgN/A
2:00 AM57 °FPassing clouds.1 mph100%29.83 "HgN/A
1:00 AM57 °FLight rain. Partly cloudy.1 mph94%29.86 "Hg4 mi
12:00 AM59 °FLight rain. Partly cloudy.1 mph88%29.83 "HgN/A
11:00 PM
Jul 11
59 °FLight rain. Passing clouds.1 mph88%29.83 "HgN/A
10:30 PM59 °FPassing clouds.2 mph82%29.83 "HgN/A
10:00 PM61 °FPassing clouds.1 mph83%29.83 "HgN/A
9:30 PM61 °FPassing clouds.2 mph77%29.80 "HgN/A
9:00 PM63 °FLight rain. Partly sunny.5 mph77%29.80 "HgN/A
8:30 PM63 °FPartly sunny.2 mph73%29.77 "HgN/A
8:00 PM63 °FScattered clouds.1 mph73%29.77 "HgN/A
7:30 PM64 °FPartly sunny.2 mph68%29.77 "HgN/A
7:00 PM64 °FPartly sunny.5 mph64%29.77 "HgN/A
6:30 PM64 °FScattered clouds.5 mph64%29.74 "HgN/A
6:00 PM66 °FScattered clouds.7 mph60%29.74 "HgN/A
5:30 PM66 °FScattered clouds.7 mph60%29.74 "HgN/A
5:00 PM66 °FScattered clouds.6 mph64%29.74 "HgN/A
4:30 PM66 °FScattered clouds.5 mph60%29.74 "HgN/A
4:00 PM66 °FScattered clouds.3 mph64%29.77 "HgN/A
Weather by CustomWeather, © 2014

See weather overviewHow to use our weather pages